This demonstration page uses our WeatherBlox Daily Observations layout. Learn more.

41.55636, -103.73856

Hourly Observations for January 19, 2019

Temp ( °F °C ) Dew Point ( °F °C ) Humidity (%) Winds ( mph kmh ) Pressure ( in mb ) Visibility ( mi km ) Precip ( " mm )
12:58 am 00:58 Mostly Cloudy 28 -2.1 24 -4.6 83 83 N 18 30 30.14 1021 10 16.0934 N/A
1:58 am 01:58 Mostly Cloudy with Light Snow Showers 28 -2 24 -4.6 83 83 N 15 24 30.16 1022 10 16.0934 N/A
2:58 am 02:58 Mostly Cloudy 28 -2.3 24 -4.6 84 84 N 16 26 30.18 1022 10 16.0934 N/A
3:58 am 03:58 Mostly Cloudy with Light Snow Showers 28 -2 24 -4.4 84 84 NNW 10 17 30.22 1024 10 16.0934 N/A
4:58 am 04:58 Mostly Cloudy with Light Snow Showers 29 -1.9 25 -4.1 85 85 NW 13 20 30.24 1024 10 16.0934 N/A
5:58 am 05:58 Cloudy with Light Snow 30 -1.3 25 -4 82 82 NW 15 24 30.27 1025 10 16.0934 N/A
6:58 am 06:58 Mostly Cloudy with Light Snow Showers 30 -1.3 25 -4 82 82 NNW 15 24 30.28 1025 10 16.0934 N/A
7:58 am 07:58 Mostly Cloudy with Light Snow Showers 30 -1.1 25 -4.1 80 80 NW 18 30 30.27 1025 10 16.0934 N/A
8:58 am 08:58 Mostly Cloudy with Light Snow Showers 31 -0.8 24 -4.2 78 78 NNW 17 28 30.29 1026 10 16.0934 N/A
9:58 am 09:58 Mostly Cloudy with Light Snow Showers 29 -1.6 23 -4.9 78 78 NW 14 22 30.29 1026 10 16.0934 N/A
10:58 am 10:58 Clear 26 -3.3 19 -7.3 74 74 NW 16 26 30.27 1025 10 16.0934 N/A
11:58 am 11:58 Partly Cloudy 27 -3 18 -7.8 70 70 NW 22 35 30.27 1025 10 16.0934 N/A
12:58 pm 12:58 Clear 27 -2.9 18 -7.8 69 69 NW 21 33 30.3 1026 10 16.0934 N/A
1:58 pm 13:58 Clear 27 -2.9 18 -8 68 68 NW 20 31 30.29 1026 10 16.0934 N/A
2:58 pm 14:58 Sunny 28 -2.3 18 -7.8 66 66 NW 23 37 30.29 1026 10 16.0934 N/A
3:58 pm 15:58 Sunny 30 -0.9 19 -7.4 62 62 NW 20 31 30.28 1025 10 16.0934 N/A
4:58 pm 16:58 Sunny 34 0.9 19 -7 56 56 NW 21 33 30.27 1025 10 16.0934 N/A
5:58 pm 17:58 Sunny 37 2.6 19 -7.1 49 49 NW 29 46 30.22 1023 10 16.0934 N/A
6:58 pm 18:58 Sunny 39 4 19 -7.3 44 44 NW 31 50 30.19 1022 10 16.0934 N/A
7:58 pm 19:58 Sunny 41 4.9 20 -6.9 43 43 NW 33 54 30.14 1021 10 16.0934 N/A
8:58 pm 20:58 Sunny 41 4.9 20 -6.9 43 43 NW 35 56 30.14 1021 10 16.0934 N/A
9:58 pm 21:58 Sunny 40 4.5 21 -5.9 47 47 WNW 28 44 30.14 1021 10 16.0934 N/A
10:58 pm 22:58 Partly Cloudy 39 4.1 22 -5.7 49 49 WNW 28 44 30.15 1021 10 16.0934 N/A
11:58 pm 23:58 Mostly Clear 38 3.3 22 -5.4 53 53 WNW 25 41 30.16 1021 10 16.0934 N/A

Powered by AerisWeather